Welcome to the New NWS' Forecast!
Most changes are behind the scenes, but click here for differences you might notice.

Regional Weather Roundup (RWR)

Issued by Gray - Portland, ME (GYX)

                            
569 
ASUS41 KGYX 190910
RWRGYX
WEATHER ROUNDUP FOR MAINE AND NEW HAMPSHIRE
NATIONAL WEATHER SERVICE GRAY ME
500 AM EDT THU JUL 19 2018

MEZ002-005-006-010-012-015-018-020-021-024-026-027-029-191000-
MAINE
  
CITY           SKY/WX    TMP DP  RH WIND       PRES   REMARKS
PORTLAND       FAIR      56  50  80 W5        30.02R                  
SANFORD        FAIR      47  46  97 CALM      30.04R                  
BAR HARBOR     FAIR      53  50  89 CALM      30.00R                  
WISCASSET      FAIR      48  47  96 CALM      30.03R                  
ROCKLAND       FAIR      51  49  92 NW5       30.00R                  
FRYEBURG       FOG       44  44 100 CALM      30.06R VSB 1/2          
LEWISTONAUBURN FAIR      47  46  97 CALM      30.04R                  
AUGUSTA        FAIR      57  46  66 CALM      30.02R                  
WATERVILLE     FAIR      49  48  97 CALM      30.01R                  
BANGOR         FAIR      51  49  92 CALM      30.02R                  
GREENVILLE       N/A     52  47  83 NW5       30.02R                  
MILLINOCKET    FAIR      50  48  93 CALM      30.02R                  
HOULTON        FAIR      44  43  96 CALM      29.98R                  
PRESQUE ISLE   FAIR      43  41  93 CALM      30.00R                  
FRENCHVILLE    FAIR      49  43  80 NW5       29.98R                  
CARIBOU        FAIR      47  44  90 CALM      29.98R                  
$$

NHZ002-005-008-009-011-012-014-191000-
NEW HAMPSHIRE
  
CITY           SKY/WX    TMP DP  RH WIND       PRES   REMARKS
PORTSMOUTH     CLEAR     54  50  87 W3        30.02R                  
ROCHESTER      FAIR      52  49  89 NW8       30.03R                  
NASHUA         FAIR      53  50  89 NW5       30.06R                  
MANCHESTER     FAIR      58  49  72 N5        30.04R                  
CONCORD        FAIR      49  45  86 CALM      30.06R                  
LACONIA        FAIR      50  47  89 CALM      30.07R                  
PLYMOUTH         N/A     43  42  97 CALM      30.08R                  
BERLIN         FOG       42  42 100 CALM      30.08R VSB<1/4          
WHITEFIELD     CLOUDY    39  38  96 CALM      30.08R FOG              
JAFFREY        MOCLDY    48  48 100 CALM      30.08R FOG              
KEENE          FOG       46  46 100 CALM      30.10R VSB 1/4          
LEBANON        FAIR      47  42  83 CALM      30.08R                  
MT WASHINGTON  PTCLDY    39  32  75 N23         N/A                   
$$

VTZ005-007-008-191000-
VERMONT
  
CITY           SKY/WX    TMP DP  RH WIND       PRES   REMARKS
ST JOHNSBURY     N/A     46  45  96 MISG      30.07R                  
MONTPELIER     FAIR      44  44 100 CALM      30.11R                  
BURLINGTON     FAIR      52  47  83 CALM      30.07R                  
$$

MAZ007-012-024-CTZ003-RIZ002-NYZ038-NYZ072-191000-
SOUTHERN NEW ENGLAND AND NY
  
CITY           SKY/WX    TMP DP  RH WIND       PRES   REMARKS
BOSTON         FAIR      65  48  54 NW6       30.04R                  
NANTUCKET      FAIR      63  57  81 N8        29.99R                  
PROVIDENCE     FAIR      62  49  62 N7        30.04R                  
HARTFORD       FAIR      55  51  86 N6        30.06R                  
ALBANY         FAIR      56  50  80 CALM      30.09R                  
NEW YORK CITY  FAIR      70  51  51 N5        30.03R                  
$$

ANZ081-ANZ082-ANZ150-NHZ014-MEZ023>029-191000-
COASTAL MARINE OBSERVATIONS
  
STATION/POSITION TIME  TEMP    WIND        PRES    WAVE
                       AIR SEA DIR/SP/G            HT/PER
                 (UTC) (F)     (DEG/KT/KT) (MB)    (FT/S)
MOUNT DESERT ROC 0900   56     310/  9/  9 1015.7R
MATINICUS ROCK   0800   60     340/ 11/ 11 1014.9R
ISLE OF SHOALS   0800   62     330/ 10/ 11 1015.6R
JEFFREYS LEDGE   0836      67                N/A     3/ 9
$$

.............KEY..............
   WCI - WIND CHILL
   TC  - TEMPERATURE IN CELSIUS
   VSB - VISIBILITY IN MILES
   HX  - HEAT INDEX
   FAIR- INDICATES FEW OR NO CLOUDS BELOW 12,000 FT, WITH NO 
         SIGNIFICANT WEATHER AND/OR OBSTRUCTIONS TO VISIBILITY.